sat.trackr.live / text

‹ back to catalog

STARLINK-35548

NORAD 66203 · 2025-243AC

PAYLOAD ACTIVE UNKNOWN

§ Identity

Operator
Country
US
Launch date
2025-10-26
Launch site
AFETR
Launch vehicle
Mass (kg)
RCS (m²)

Purposes: comms

External: N2YO · Heavens-Above · Gunter

§ Orbital elements

Epoch: 2026-09-20T16:43:15.768192Z

Period
93.85 min
Inclination
53.1609°
Eccentricity
0.0001667
Mean motion
15.34411124 rev/d
Perigee alt
461.5 km
Apogee alt
463.8 km
Semi-major
6,840.8 km
B*
5.6547e-4
RAAN
58.5128°
Arg perigee
86.9401°
Mean anomaly
273.1793°
Rev number
5,052

§ Raw data

STARLINK-355481 66203U 25243AC  26263.69671028  .00018784  00000+0  56547-3 0  99982 66203  53.1609  58.5128 0001667  86.9401 273.1793 15.34411124 50520

JSON: /api/v1/satellites/66203 · /tle

For live sub-satellite position, see the globe view (requires WebGL).

§ Visibility from observer

Set your observer location to see the next 7 days of passes ≥ 10°. The values pass through the URL so the page stays shareable.

No JS? Fill the form by hand. The geolocation button needs JavaScript.